Погода Кемерово

Погода Кемерово : погода сейчас, прогноз погоды и архив. Всё, что Вы хотите узнать о погоде Кемерово!

Поиск расширенной информации на нашем сайте:

Другие новости

Новости СМИ2

Главная страница сайта

Новости сайта

03.07.2017

Напоминаем, что на нашем специализированном сайте Метеоцентр.Азия вы можете получить высокодетализированные автоматические прогнозы погоды по пунктам России, СНГ и мира в авиационном формате (включающие направление и скорость ветра, видимость, явления погоды, количество и форму облачности, нижнюю и верхнюю границу облачности).


Погода Кемерово - сегодня

Время (UTC), дата Ветер
(°,м/с) 
Видим.   Явления Облачность Т
(°С)
Тd
(°С)
f(%) Тe
(°С)
Pmin
(гПа)
dP
(гПа)
Po
(мм)
O2
(г/м3)
Тmin Tmax R s Состояние
почвы
00 18.11.17 160 (Ю) 20000 м    10/10 600 м 
[Sc]
-2.2 -4.6 84 -3  1026.7  -1  756  308  -9.3      13  равномерный
сухой снег
100% 
03 18.11.17 180 (Ю) 20000 м    10/10 600 м 
[Sc]
-1.5 -4.3 81 -3  1026.3  -0.3  756  307           
06 18.11.17 170 (Ю) 20000 м    8/6 600 м средняя 
[Sc|Ac trans]
-1.4 -4.9 77 -4  1025.3  -1  755  306           
09 18.11.17 160 (Ю) 20000 м    8/3 600 м средняя, верхняя 
[Sc|Ac trans|Ci fib]
-2 -5.8 75 -4  1023.8  -1.5  754  307           
12 18.11.17 160 (Ю) 20000 м    8/3 600 м средняя 
[Sc|Ac trans]
-2.8 -6.8 74 -5  1022.7  -1.1  753  307    -1.1       
15 18.11.17 160 (Ю) 20000 м    8/0 средняя 
[Ac trans]
-3 -7 74 -4  1020.5  -2.2  751  307           
18 18.11.17 150 (ЮВ) 20000 м    10/0 средняя 
[Ac trans]
-1.8 -6 73 -4  1018.3  -2  750  305           
21 18.11.17 190 (Ю) 20000 м    10/0 средняя 
[Ac trans]
-0.4 -6 66 -2  1017.3  -0.9  749  303           
00 19.11.17 190 (Ю) 4000 м  слаб. ливневой снег  10/8 600 м кучево-дожд., средняя 
[Cb cap|Ac trans]
-0.8 -3.5 82 -3  1017.3  -0.1  749  303  -3.7    0.0  10  равномерный
сухой снег
100% 
03 19.11.17 200 (Ю) 2000 м  слаб. ливневой снег  10/10 300 м кучево-дожд. 
[Cb cap]
-0.9 -1.9 93 -2  1019.1  1.8  750  304           
06 19.11.17 250 (З) 20000 м  {ливн. осадки}  10/9 600 м верхняя 
[Sc|Ci fib]
+0.7 -2.3 80 1020.6  1.6  752  302           
09 19.11.17 250 (З) 20000 м    10/10 600 м 
[Sc]
+0.3 -2.9 79 1022.4  1.7  753  303           
12 19.11.17 280 (З) 4000 м  слаб. ливневой снег  10/10 600 м кучево-дожд. 
[Cb cap]
-1.2 -5.1 75 -4  1024.6  2.1  754  306    +0.8  0.6     
15 19.11.17 240 (ЮЗ) 20000 м  {ливн. осадки}  9/8 600 м средняя 
[Sc|Ac trans]
-3.1 -6 80 -3  1026.4  1.7  756  309           
18 19.11.17 270 (З) 4000 м  слаб. ливневой снег  10/10 600 м кучево-дожд. 
[Cb cap]
-3.6 -6.6 80 -5  1027.9  1.4  757  310           
21 19.11.17 300 (СЗ) 4000 м  слаб. ливневой снег  10/10 600 м кучево-дожд. 
[Cb cap]
-4.7 -7.8 79 -6  1029.2  1.2  758  311           
00 20.11.17 200 (Ю) 4000 м  слаб. ливневой снег  10/10 300 м кучево-дожд. 
[Cb cap]
-5.5 -7.2 88 -5  1030.1  0.8  758  313  -5.5    0.2  10  равномерный
сухой снег
100% 
06 20.11.17 240 (ЮЗ) 4000 м  слаб. ливневой снег  10/10 600 м кучево-дожд. 
[Cb cap]
-3 -5.4 83 -4  1030.3  0.5  758  310           
09 20.11.17 240 (ЮЗ) 20000 м  {ливн. осадки}  10/10 600 м 
[Sc]
-3.5 -6.4 80 -3  1031.5  1.1  759  311           
12 20.11.17 230 (ЮЗ) 4000 м  слаб. ливневой снег  10/10 600 м кучево-дожд. 
[Cb cap]
-3.3 -4.6 91 -4  1032.4  0.9  760  311    -2.8     
15 20.11.17 240 (ЮЗ) 10 км  в посл. час ливневой снег  6/3 600 м верхняя 
[Sc|Ci fib]
-3 -4.5 89 -4  1032.8  0.4  760  310           
18 20.11.17 240 (ЮЗ) 20000 м  {ливн. осадки}  10/10 600 м 
[Sc]
-2.3 -3.9 89 -3  1032.9  0.1  760  309           
21 20.11.17 220 (ЮЗ) 20000 м    10/10 600 м 
[Sc]
-2.4 -4.3 87 -4  1032.6  -0.3  760  310           
00 21.11.17 200 (Ю) 4000 м  слаб. ливневой снег  10/10 600 м кучево-дожд. 
[Cb cap]
-2.1 -3.7 89 -4  1032  -0.5  760  309  -4.1    0.2  12  равномерный
сухой снег
100% 
03 21.11.17 200 (Ю) 4000 м  слаб. ливневой снег  10/10 600 м кучево-дожд. 
[Cb cap]
-2.1 -3.1 93 -4  1031.5  -0.6  759  309           
Время (UTC), дата Ветер
(°,м/с) 
Видим.   Явления Облачность Т
(°С)
Тd
(°С)
f(%) Тe
(°С)
Pmin
(гПа)
dP
(гПа)
Po
(мм)
O2
(г/м3)
Тmin Tmax R s Состояние
почвы

Для получения пояснительной информации подведите курсор к названию столбца.

ПОГОДА Кемерово - архив

Всё, что Вы хотите узнать о погоде Кемерово - удобно и подробно!

Выберите нужную дату (начиная с 1 января 2015* года) и нажмите кнопку "Найти".
Будут отображены архивные сводки погоды по пункту Кемерово, начиная с указанной даты.


Отображать данные в формате CSV (для использования в таблицах Excel)


Внимание! Наш архив погоды предназначен исключительно для личного некоммерческого использования в познавательных целях. Если Вам необходимы официальные справки о состоянии погоды (для производственных, юридических, коммерческих и т.п. целей), обращайтесь в органы Росгидромета.

*Примечание: данная дата относится к архиву по метеостанциям СССР (Россия, СНГ, Балтия).
Архив по метеостанциям Зарубежной Европы и Азии (кроме Китая) хранится 10 дней, по другим регионам земного шара (Китай, Африка, Америка, Австралия, Океания) - 1 день.

Кемерово - район местоположения метеостанции


Название, широта, долгота, высота метеостанции:
Кемерово (город) 55.2°ш. 86.1°д. 260 м над ур. моря [Российская Федерация]

Дополнительная информация

В oтличие oт бoльшинства пoгoдных сайтoв мы публикуем пoдрoбную метеoинфoрмацию в детальнoм прoфессиoнальнoм фoрмате.

Характеристики температуры и влажнoсти вoздуха измеряются на высoте 2 м в тени вдали oт зданий и деревьев.
Скoрoсть ветра измеряется на высoте 10 м (на урoвне рoста челoвека скoрoсть ветра ниже в 1.5-2 раза). Если метеoстанция нахoдится в гoрoде или в лесу, тo скoрoсть ветра занижена на 2-4 м/с пo сравнению с oткрытым местoм. Скoрoсть ветра над акватoриями крупных рек и oзёр, а также на вершинах хoлмoв на 2-5 м/с выше, чем в oбычных услoвиях.
Атмoсфернoе давление в разных тoчках местнoсти мoжет значительнo oтличаться oт давления на метеoстанции, в зависимoсти oт услoвий рельефа (при пoдъёме на 10 м давление пoнижается примернo на 1 мм рт.ст.).